User: anonymous   Login
Location: Oshawa
(43.9000°N, 78.8670°W)
Time: 11:05:57
(UTC-04:00)
Language:

Cosmos 1707 Rocket - Orbit

View from above orbital plane
View from above orbital plane
View from above satellite
View from above satellite

Ground track
Ground track

The orbit data is extracted from the following two-line orbital elements,

1 16327U 85113B   16239.89902598  .00000090  00000-0  80885-5 0  9991
2 16327  82.5363   7.5008 0017767 236.4292 244.1419 14.83308243658251
Epoch (UTC): 26 August 2016 21:34:35
Eccentricity: 0.0017767
inclination: 82.5363°
perigee height: 606 km
apogee height: 631 km
right ascension of ascending node: 7.5008°
argument of perigee: 236.4292°
revolutions per day: 14.83308243
mean anomaly at epoch: 244.1419°
orbit number at epoch: 65825

The dashed part of the orbit path shows where the satellite is in the earth's shadow,  

DLR